Weather History for Lincoln, NE

Change the Weather History Date:

Friday, November 26, 2010

  Actual Average Record
Temperature  
Mean Temperature 32 °F 33 °F  
Max Temperature 49 °F 44 °F 71 °F (1894)
Min Temperature 14 °F 22 °F -2 °F (1887)
Degree Days  
Heating Degree Days 33 32  
Month to date heating degree days 651 651  
Since 1 July heating degree days 1005 1130  
Cooling Degree Days 0 0  
Month to date cooling degree days 0 0  
Year to date cooling degree days 1306 1173  
Moisture  
Dew Point 14 °F    
Average Humidity 50    
Maximum Humidity 68    
Minimum Humidity 31    
Precipitation  
Precipitation 0.00 in 0.04 in 1.31 in (1896)
Month to date precipitation 1.97 1.27  
Year to date precipitation 34.18 27.84  
Snow  
Snow 0.00 in 0.10 in - ()
Month to date snowfall T 1.6  
Since 1 July snowfall T 2.3  
Snow Depth 0.00 in    
Sea Level Pressure  
Sea Level Pressure 30.09 in    
Wind  
Wind Speed 10 mph (West)    
Max Wind Speed 26 mph    
Max Gust Speed 35 mph    
Visibility 10 miles    
Events      
T = Trace of Precipitation, MM = Missing Value Source: NWS Daily Summary

Daily Weather History Graph

Daily Weather History Graph

Search for Another Location

Airport:

Trip Planner

Search our weather history database for the weather conditions in past years. The results will help you decide how hot, cold, wet, or windy it might be!

Date:

Astronomy

Nov. 26, 2010 Rise Set
Actual Time 7:26 AM CST 5:01 PM CST
Civil Twilight 6:56 AM CST 5:31 PM CST
Nautical Twilight 6:22 AM CST 6:05 PM CST
Astronomical Twilight 5:49 AM CST 6:38 PM CST
Moon 10:12 PM CST (11/26) 11:33 AM CST (11/26)
Length of Visible Light 10h 35m
Length of Day
9h 34m
Waning Gibbous, 73% of the Moon is Illuminated
Nov 26
Waning Gibbous
Nov 28
Last Quarter
Dec 5
New
Dec 13
First Quarter
Dec 21
Full

Hourly Weather History & Observations

Time (CST) Temp. Windchill Dew Point Humidity Pressure Visibility Wind Dir Wind Speed Gust Speed Precip Events Conditions
12:54 AM 17.6 °F 12.3 °F 6.8 °F 63% 30.06 in 10.0 mi WSW 3.5 mph - N/A   Clear
1:54 AM 18.0 °F 8.7 °F 7.0 °F 62% 30.10 in 10.0 mi West 6.9 mph - N/A   Clear
2:54 AM 19.0 °F 11.1 °F 7.0 °F 59% 30.07 in 10.0 mi WSW 5.8 mph - N/A   Clear
3:54 AM 19.9 °F 12.1 °F 8.1 °F 60% 30.07 in 10.0 mi WNW 5.8 mph - N/A   Clear
4:54 AM 23.0 °F 13.9 °F 9.0 °F 55% 30.06 in 10.0 mi West 8.1 mph - N/A   Clear
5:54 AM 23.0 °F 12.4 °F 9.0 °F 55% 30.06 in 10.0 mi West 10.4 mph - N/A   Clear
6:54 AM 24.1 °F 14.4 °F 10.0 °F 55% 30.08 in 10.0 mi WNW 9.2 mph - N/A   Mostly Cloudy
7:54 AM 25.0 °F 14.2 °F 10.0 °F 53% 30.09 in 10.0 mi West 11.5 mph 19.6 mph N/A   Clear
8:54 AM 28.9 °F 17.7 °F 12.0 °F 49% 30.09 in 10.0 mi West 15.0 mph 20.7 mph N/A   Clear
9:54 AM 36.0 °F 26.3 °F 15.1 °F 43% 30.09 in 10.0 mi West 16.1 mph - N/A   Clear
10:54 AM 42.1 °F 33.3 °F 18.0 °F 38% 30.09 in 10.0 mi WNW 19.6 mph 26.5 mph N/A   Clear
11:54 AM 44.1 °F 35.2 °F 19.0 °F 37% 30.07 in 10.0 mi WNW 23.0 mph 28.8 mph N/A   Clear
12:54 PM 46.0 °F 37.6 °F 19.0 °F 34% 30.06 in 10.0 mi WNW 24.2 mph 31.1 mph N/A   Clear
1:54 PM 48.0 °F - 19.0 °F 32% 30.06 in 10.0 mi WNW 21.9 mph 28.8 mph N/A   Clear
2:54 PM 48.0 °F - 19.0 °F 32% 30.06 in 10.0 mi WNW 20.7 mph 27.6 mph N/A   Clear
3:54 PM 48.0 °F - 19.0 °F 32% 30.07 in 10.0 mi NW 13.8 mph - N/A   Clear
4:54 PM 45.0 °F 40.6 °F 19.0 °F 36% 30.09 in 10.0 mi WNW 8.1 mph - N/A   Clear
5:54 PM 41.0 °F 36.4 °F 19.0 °F 41% 30.09 in 10.0 mi NW 6.9 mph - N/A   Clear
6:54 PM 33.1 °F 30.0 °F 18.0 °F 54% 30.09 in 10.0 mi West 3.5 mph - N/A   Clear
7:54 PM 27.0 °F - 17.1 °F 66% 30.12 in 10.0 mi Calm Calm - N/A   Clear
8:54 PM 28.0 °F - 17.1 °F 63% 30.12 in 10.0 mi Calm Calm - N/A   Clear
9:54 PM 26.1 °F 21.9 °F 17.1 °F 69% 30.13 in 10.0 mi SW 3.5 mph - N/A   Clear
10:54 PM 25.0 °F - 16.0 °F 69% 30.13 in 10.0 mi Calm Calm - N/A   Clear
11:54 PM 21.0 °F - 15.1 °F 78% 30.14 in 10.0 mi Calm Calm - N/A   Clear